Location: Anankanda
(14.7841°N, 3.0348°W)
Time: 00:49:41
(UTC+00:00)

SAR-Lupe-1 - Pass Details

Date: 17 January 2021
Orbit: 482 x 484 km, 98.2° (Epoch: 06 March)

Event Time Altitude Azimuth Distance (km) Brightness Sun altitude
Rises 18:26:59 0° 10° (N) 2,534 7.4 -6.2°
Reaches altitude 10° 18:29:02 10° 10° (N) 1,655 6.5 -6.7°
Maximum altitude 18:32:35 84° 284° (WNW) 488 4.1 -7.5°
Drops below altitude 10° 18:36:09 10° 194° (SSW) 1,653 7.2 -8.3°
Sets 18:38:12 0° 193° (SSW) 2,531 8.2 -8.7°
